Weather History for KCHS - February, 2014

Change the Weather History Date:

Tuesday, February 25, 2014

  Actual Average Record
Temperature  
Mean Temperature 65 °F 54 °F  
Max Temperature 79 °F 65 °F 80 °F (1930)
Min Temperature 50 °F 43 °F 18 °F (1967)
Degree Days  
Heating Degree Days 0 12  
Month to date heating degree days 276 345  
Since 1 July heating degree days 1474 1604  
Cooling Degree Days 0 0  
Month to date cooling degree days 8 0  
Year to date cooling degree days 10 2  
Growing Degree Days 14 (Base 50)    
Moisture  
Dew Point 45 °F    
Average Humidity 57    
Maximum Humidity 86    
Minimum Humidity 28    
Precipitation  
Precipitation 0.00 in 0.11 in 1.73 in (1957)
Month to date precipitation 1.65 2.65  
Year to date precipitation 4.32 6.36  
Sea Level Pressure  
Sea Level Pressure 29.99 in    
Wind  
Wind Speed 6 mph (WSW)    
Max Wind Speed 21 mph    
Max Gust Speed 25 mph    
Visibility 10 miles    
Events      
T = Trace of Precipitation, MM = Missing Value Source: NWS Daily Summary

Daily Weather History Graph

Daily Weather History Graph

Search for Another Location

Airport or City:

Trip Planner

Search our weather history database for the weather conditions in past years. The results will help you decide how hot, cold, wet, or windy it might be!

Date:

Astronomy

Feb. 25, 2014 Rise Set
Actual Time 6:52 AM EST 6:14 PM EST
Civil Twilight 6:27 AM EST 6:38 PM EST
Nautical Twilight 5:59 AM EST 7:07 PM EST
Astronomical Twilight 5:30 AM EST 7:36 PM EST
Moon 3:37 AM EST (2/25) 2:26 PM EST (2/25)
Length of Visible Light 12h 11m
Length of Day
11h 21m
Waning Crescent, 18% of the Moon is Illuminated
Feb 25
Waning Crescent
Mar 1
New
Mar 8
First Quarter
Mar 16
Full
Mar 23
Last Quarter

Hourly Weather History & Observations

Time (EST) Temp. Dew Point Humidity Pressure Visibility Wind Dir Wind Speed Gust Speed Precip Events Conditions
12:56 AM 55.0 °F 46.9 °F 74% 30.07 in 10.0 mi ESE 3.5 mph - N/A   Overcast
1:56 AM 54.0 °F 46.0 °F 75% 30.06 in 10.0 mi Calm Calm - N/A   Mostly Cloudy
2:56 AM 54.0 °F 46.9 °F 77% 30.05 in 10.0 mi Calm Calm - N/A   Mostly Cloudy
3:56 AM 54.0 °F 46.9 °F 77% 30.03 in 10.0 mi Calm Calm - N/A   Mostly Cloudy
4:56 AM 54.0 °F 46.9 °F 77% 30.04 in 10.0 mi Calm Calm - N/A   Mostly Cloudy
5:56 AM 51.1 °F 46.9 °F 86% 30.04 in 10.0 mi Calm Calm - N/A   Mostly Cloudy
6:56 AM 50.0 °F 46.0 °F 86% 30.05 in 10.0 mi Calm Calm - N/A   Mostly Cloudy
7:56 AM 55.9 °F 50.0 °F 80% 30.06 in 10.0 mi Calm Calm - N/A   Mostly Cloudy
8:56 AM 62.1 °F 52.0 °F 70% 30.05 in 10.0 mi SSW 5.8 mph - N/A   Scattered Clouds
9:56 AM 69.1 °F 53.1 °F 57% 30.05 in 10.0 mi SW 11.5 mph - N/A   Partly Cloudy
10:56 AM 73.9 °F 51.1 °F 45% 30.04 in 10.0 mi SW 15.0 mph 21.9 mph N/A   Scattered Clouds
11:56 AM 73.9 °F 48.0 °F 40% 30.00 in 10.0 mi WSW 13.8 mph 20.7 mph N/A   Scattered Clouds
12:56 PM 75.0 °F 46.0 °F 36% 29.96 in 10.0 mi West 11.5 mph - N/A   Scattered Clouds
1:56 PM 78.1 °F 43.0 °F 29% 29.91 in 10.0 mi West 15.0 mph 19.6 mph N/A   Scattered Clouds
2:56 PM 77.0 °F 42.1 °F 29% 29.90 in 10.0 mi West 16.1 mph 21.9 mph N/A   Partly Cloudy
3:56 PM 77.0 °F 42.1 °F 29% 29.90 in 10.0 mi WNW 13.8 mph - N/A   Partly Cloudy
4:56 PM 73.9 °F 39.0 °F 28% 29.90 in 10.0 mi West 13.8 mph - N/A   Partly Cloudy
5:56 PM 72.0 °F 37.9 °F 29% 29.91 in 10.0 mi West 5.8 mph - N/A   Scattered Clouds
6:56 PM 66.9 °F 39.0 °F 36% 29.92 in 10.0 mi West 4.6 mph - N/A   Partly Cloudy
7:56 PM 61.0 °F 42.1 °F 50% 29.93 in 10.0 mi SW 5.8 mph - N/A   Mostly Cloudy
8:56 PM 62.1 °F 43.0 °F 50% 29.94 in 10.0 mi WSW 5.8 mph - N/A   Partly Cloudy
9:56 PM 61.0 °F 43.0 °F 52% 29.95 in 10.0 mi West 4.6 mph - N/A   Scattered Clouds
10:56 PM 62.1 °F 43.0 °F 50% 29.94 in 10.0 mi Calm Calm - N/A   Mostly Cloudy
11:56 PM 60.1 °F 44.1 °F 55% 29.92 in 10.0 mi Calm Calm - N/A   Overcast